Regional Weather Roundup
Issued by NWS

Home | Current Version | Previous Version | Text Only | Print | Product List | Glossary Off
Versions: 1 2 3 4 5 6 7 8 9 10 11 12 13 14 15 16 17 18 19 20 21 22 23 24 25 26 27

000
ASUS45 KCYS 260110
RWRWY

WYOMING REGIONAL WEATHER ROUNDUP
NATIONAL WEATHER SERVICE CHEYENNE WY
700 PM MDT WED MAY 25 2016

NOTE:  "FAIR" INDICATES FEW OR NO CLOUDS BELOW 12,000 FEET
WITH NO SIGNIFICANT WEATHER AND/OR OBSTRUCTIONS TO VISIBILITY.

WYZ001-260200-
YELLOWSTONE NATIONAL PARK

CITY           SKY/WX    TMP DP  RH WIND       PRES   REMARKS
LK YELLOWSTONE   N/A     39  34  82 CALM      30.09F
W YELLOWSTONE  NOT AVBL

$$
WYZ002>013-054>058-071-098>099-260200-
NORTHERN WYOMING

CITY           SKY/WX    TMP DP  RH WIND       PRES   REMARKS
JACKSON        PTSUNNY   48  39  71 VRB5      30.05
CODY           CLOUDY    57  39  51 CALM      29.94R
GREYBULL       FAIR      54  47  77 SE5       29.92S
WORLAND        CLOUDY    59  44  57 N9        29.92R
SHERIDAN       LGT RAIN  51  46  83 S12       29.91F
BUFFALO        PTSUNNY   55  42  61 NW6       29.96R
GILLETTE       FAIR      58  43  57 N6        29.93R
HULETT         FAIR      52  46  82 S5        29.92F
NEWCASTLE      FAIR      61  37  41 NW15      29.91S

$$
WYZ014>020-022>026-101>103-260200-
CENTRAL WYOMING

CITY           SKY/WX    TMP DP  RH WIND       PRES   REMARKS
BIG PINEY      CLOUDY    50  35  56 SW6       30.08S
PINEDALE       MOCLDY    48  36  61 S3        30.08F
DUBOIS         MOCLDY    43  34  70 W20G37    30.05R
LANDER         FAIR      58  31  35 W22G31    29.93R
RIVERTON       LGT RAIN  62  37  39 SW14      29.93R
CASPER         CLOUDY    51  43  74 E13       29.95F
DOUGLAS          N/A    N/A N/A N/A MISG      29.99R

$$
WYZ021-027>030-104>119-260200-
SOUTHERN WYOMING

CITY           SKY/WX    TMP DP  RH WIND       PRES   REMARKS
EVANSTON       PTSUNNY   53  33  46 W13       30.07S THUNDER
KEMMERER         N/A     46  34  61 W12       30.10R
FORT BRIDGER   CLOUDY    52  37  58 NW7       30.12S
ROCK SPRINGS   FAIR      47  34  60 SW20      30.09R
DIXON          FAIR      60  29  30 NW7       30.05S
RAWLINS        FAIR      57  28  33 W20G26    30.04S
SARATOGA       FAIR      55  32  41 W12G18    30.06S
LARAMIE        FAIR      55  31  39 NW16G25   30.04R
CHEYENNE       PTSUNNY   61  43  51 W5        29.98R THUNDER
TORRINGTON     FAIR      68  27  21 W8        29.89R
PINE BLUFFS    MOCLDY    55  41  58 N5        29.97R

$$




USA.gov is the U.S. government's official web portal to all federal, state and local government web resources and services.